This is the latest recevied weather packets stored in our database for station/object BG4IKR-13. If no packets are shown the sender has not sent any weather packets the latest 10 day(s).
| Time | Temp. | Humidity | Pressure | Rain* | Wind** | Luminosity | Snow |
|---|---|---|---|---|---|---|---|
| 1788154501 | 79° F | 60% | 755.2 mmHg | - | - | - | - |
| 1788153550 | 79° F | 60% | 755.4 mmHg | - | - | - | - |
| 1788152234 | 79° F | 58% | 755.3 mmHg | - | - | - | - |
| 1788150915 | 79° F | 56% | 755.5 mmHg | - | - | - | - |
| 1788149548 | 79° F | 58% | 755.6 mmHg | - | - | - | - |
| 1788148552 | 79° F | 58% | 755.6 mmHg | - | - | - | - |
| 1788147557 | 78° F | 60% | 755.6 mmHg | - | - | - | - |
| 1788146240 | 78° F | 63% | 755.7 mmHg | - | - | - | - |
| 1788144862 | 78° F | 63% | 755.7 mmHg | - | - | - | - |
| 1788143860 | 78° F | 65% | 755.8 mmHg | - | - | - | - |
| 1788142896 | 78° F | 68% | 755.8 mmHg | - | - | - | - |
| 1788141521 | 78° F | 69% | 755.9 mmHg | - | - | - | - |
| 1788140513 | 78° F | 68% | 755.9 mmHg | - | - | - | - |
| 1788139516 | 78° F | 70% | 755.7 mmHg | - | - | - | - |
| 1788138491 | 78° F | 72% | 755.5 mmHg | - | - | - | - |
| 1788137495 | 78° F | 73% | 755.5 mmHg | - | - | - | - |
| 1788136173 | 78° F | 75% | 755.3 mmHg | - | - | - | - |
| 1788134802 | 78° F | 75% | 755.4 mmHg | - | - | - | - |
| 1788133843 | 78° F | 76% | 755.4 mmHg | - | - | - | - |
| 1788132422 | 77° F | 76% | 755.4 mmHg | - | - | - | - |
| 1788131104 | 77° F | 76% | 755.4 mmHg | - | - | - | - |
| 1788129784 | 77° F | 75% | 755.2 mmHg | - | - | - | - |
| 1788128415 | 77° F | 76% | 755.2 mmHg | - | - | - | - |
| 1788127406 | 77° F | 76% | 755 mmHg | - | - | - | - |
| 1788126439 | 77° F | 76% | 754.9 mmHg | - | - | - | - |
* Rain since midnight (hover to see other rain measurements)
** Current wind speed in m/s (hover to see current wind gust speed)